• In Denmark
  • List of Countries
  • For 7 days
  • Water Temperature
  • Satellite Maps
  • Weather Map
  • Weather Widgets
  • user-avatar
    Login

    Hourly Weather Graz

    Today, 19 June, Tuesday

    Time Temperature Precipitation Wind Pressure Humidity
    00:00 +16°C° 0 mm 2 mps 727 mmHg 84%
    01:00 +15°C° 0 mm 2 mps 727 mmHg 86%
    02:00 +15°C° 0 mm 2 mps 727 mmHg 87%
    03:00 +15°C° 0 mm 2 mps 728 mmHg 88%
    04:00 +14°C° 0 mm 2 mps 728 mmHg 88%
    05:00 +16°C° 0 mm 2 mps 728 mmHg 82%
    06:00 +18°C° 0 mm 2 mps 728 mmHg 76%
    07:00 +20°C° 0 mm 2 mps 728 mmHg 70%
    08:00 +23°C° 0 mm 2 mps 729 mmHg 63%
    09:00 +24°C° 0 mm 2 mps 729 mmHg 56%
    10:00 +26°C° 0 mm 2 mps 729 mmHg 48%
    11:00 +27°C° 0 mm 3 mps 729 mmHg 47%
    12:00 +27°C° 0 mm 3 mps 728 mmHg 45%
    13:00 +28°C° 0 mm 3 mps 728 mmHg 43%
    14:00 +28°C° 0 mm 3 mps 728 mmHg 45%
    15:00 +28°C° 0 mm 3 mps 728 mmHg 46%
    16:00 +28°C° 0 mm 3 mps 728 mmHg 47%
    17:00 +26°C° 0 mm 2 mps 728 mmHg 56%
    18:00 +25°C° 0 mm 2 mps 728 mmHg 64%
    19:00 +24°C° 0 mm 1 mps 728 mmHg 72%
    20:00 +22°C° 0 mm 1 mps 728 mmHg 77%
    21:00 +21°C° 0 mm 1 mps 728 mmHg 82%
    22:00 +19°C° 0 mm 1 mps 729 mmHg 87%
    23:00 +19°C° 0 mm 1 mps 729 mmHg 88%

    Tomorrow, 20 June, Wednesday

    Time Temperature Precipitation Wind Pressure Humidity
    00:00 +18°C° 0 mm 1 mps 729 mmHg 89%
    01:00 +18°C° 0 mm 1 mps 729 mmHg 90%
    02:00 +18°C° 0 mm 1 mps 729 mmHg 90%
    03:00 +16°C° 0 mm 1 mps 729 mmHg 90%
    04:00 +16°C° 0 mm 1 mps 729 mmHg 90%
    05:00 +19°C° 0 mm 1 mps 729 mmHg 84%
    06:00 +21°C° 0 mm 1 mps 729 mmHg 78%
    07:00 +23°C° 0 mm 1 mps 729 mmHg 71%
    08:00 +24°C° 0 mm 1 mps 729 mmHg 65%
    09:00 +26°C° 0 mm 2 mps 729 mmHg 59%
    10:00 +28°C° 0 mm 2 mps 729 mmHg 53%
    11:00 +28°C° 0.2 mm 2 mps 729 mmHg 55%
    12:00 +28°C° 0.2 mm 2 mps 729 mmHg 56%
    13:00 +28°C° 0.2 mm 2 mps 728 mmHg 58%
    14:00 +28°C° 0.8 mm 2 mps 728 mmHg 62%
    15:00 +27°C° 0.8 mm 2 mps 728 mmHg 67%
    16:00 +27°C° 0.8 mm 2 mps 727 mmHg 72%
    17:00 +26°C° 0.5 mm 1 mps 727 mmHg 77%
    18:00 +25°C° 0.5 mm 1 mps 727 mmHg 82%
    19:00 +24°C° 0.5 mm 1 mps 727 mmHg 87%
    20:00 +22°C° 0 mm 1 mps 727 mmHg 89%
    21:00 +21°C° 0 mm 1 mps 727 mmHg 91%
    22:00 +20°C° 0 mm 1 mps 727 mmHg 92%
    23:00 +20°C° 0 mm 1 mps 727 mmHg 92%

    Day after tomorrow, 21 June, Thursday

    Time Temperature Precipitation Wind Pressure Humidity
    00:00 +20°C° 0 mm 1 mps 727 mmHg 92%
    01:00 +19°C° 0 mm 1 mps 726 mmHg 93%
    02:00 +19°C° 0 mm 1 mps 726 mmHg 93%
    03:00 +19°C° 0 mm 1 mps 726 mmHg 93%
    04:00 +18°C° 0 mm 1 mps 725 mmHg 92%
    05:00 +20°C° 0 mm 1 mps 725 mmHg 88%
    06:00 +20°C° 0 mm 0 mps 725 mmHg 83%
    07:00 +22°C° 0 mm 0 mps 725 mmHg 79%
    08:00 +24°C° 0 mm 0 mps 725 mmHg 70%
    09:00 +28°C° 0 mm 1 mps 725 mmHg 61%
    10:00 +30°C° 0 mm 1 mps 725 mmHg 52%
    11:00 +30°C° 0.1 mm 1 mps 724 mmHg 50%
    12:00 +31°C° 0.1 mm 2 mps 723 mmHg 48%
    13:00 +32°C° 0.1 mm 2 mps 723 mmHg 46%
    14:00 +31°C° 0.6 mm 2 mps 722 mmHg 50%
    15:00 +31°C° 0.6 mm 2 mps 722 mmHg 55%
    16:00 +30°C° 0.6 mm 2 mps 722 mmHg 60%
    17:00 +28°C° 0.8 mm 1 mps 721 mmHg 66%
    18:00 +27°C° 0.8 mm 1 mps 721 mmHg 73%
    19:00 +25°C° 0.8 mm 1 mps 721 mmHg 79%
    20:00 +24°C° 0.9 mm 1 mps 721 mmHg 83%
    21:00 +23°C° 0.9 mm 2 mps 721 mmHg 86%
    22:00 +21°C° 0.9 mm 2 mps 722 mmHg 89%
    23:00 +20°C° 1 mm 2 mps 722 mmHg 90%

    22 June, Friday

    Time Temperature Precipitation Wind Pressure Humidity
    00:00 +19°C° 1 mm 2 mps 723 mmHg 91%
    01:00 +19°C° 1 mm 2 mps 723 mmHg 92%
    02:00 +18°C° 0.8 mm 2 mps 723 mmHg 92%
    03:00 +17°C° 0.8 mm 2 mps 723 mmHg 92%
    04:00 +16°C° 0.8 mm 2 mps 724 mmHg 92%
    05:00 +15°C° 2.2 mm 2 mps 724 mmHg 92%
    06:00 +14°C° 2.2 mm 2 mps 724 mmHg 92%
    07:00 +13°C° 2.2 mm 2 mps 725 mmHg 92%
    08:00 +13°C° 2.8 mm 2 mps 725 mmHg 92%
    09:00 +13°C° 2.8 mm 2 mps 726 mmHg 91%
    10:00 +12°C° 2.8 mm 1 mps 726 mmHg 91%
    11:00 +12°C° 0.9 mm 1 mps 726 mmHg 88%
    12:00 +13°C° 0.9 mm 1 mps 726 mmHg 86%
    13:00 +13°C° 0.9 mm 1 mps 726 mmHg 84%
    14:00 +14°C° 0.2 mm 1 mps 726 mmHg 81%
    15:00 +14°C° 0.2 mm 2 mps 726 mmHg 78%
    16:00 +14°C° 0.2 mm 2 mps 726 mmHg 75%
    17:00 +14°C° 0 mm 2 mps 726 mmHg 77%
    18:00 +14°C° 0 mm 2 mps 726 mmHg 79%
    19:00 +13°C° 0 mm 1 mps 726 mmHg 80%
    20:00 +12°C° 0 mm 1 mps 726 mmHg 83%
    21:00 +11°C° 0 mm 1 mps 727 mmHg 86%
    22:00 +10°C° 0 mm 1 mps 727 mmHg 89%
    23:00 +10°C° 0 mm 1 mps 727 mmHg 90%

    23 June, Saturday

    Time Temperature Precipitation Wind Pressure Humidity
    00:00 +10°C° 0 mm 1 mps 727 mmHg 90%
    01:00 +9°C° 0 mm 1 mps 727 mmHg 91%
    02:00 +9°C° 0 mm 1 mps 727 mmHg 91%
    03:00 +9°C° 0 mm 1 mps 727 mmHg 91%
    04:00 +9°C° 0 mm 1 mps 727 mmHg 91%
    05:00 +10°C° 0 mm 1 mps 727 mmHg 84%
    06:00 +12°C° 0 mm 2 mps 728 mmHg 77%
    07:00 +14°C° 0 mm 2 mps 728 mmHg 71%
    08:00 +15°C° 0 mm 2 mps 728 mmHg 63%
    09:00 +16°C° 0 mm 2 mps 728 mmHg 56%
    10:00 +18°C° 0 mm 2 mps 728 mmHg 49%
    11:00 +19°C° 0 mm 2 mps 727 mmHg 47%
    12:00 +19°C° 0 mm 2 mps 727 mmHg 45%
    13:00 +20°C° 0 mm 2 mps 727 mmHg 43%
    14:00 +20°C° 0 mm 2 mps 727 mmHg 44%
    15:00 +20°C° 0 mm 2 mps 726 mmHg 45%
    16:00 +20°C° 0 mm 2 mps 726 mmHg 46%
    17:00 +19°C° 0 mm 2 mps 726 mmHg 54%
    18:00 +18°C° 0 mm 1 mps 726 mmHg 62%
    19:00 +16°C° 0 mm 1 mps 726 mmHg 70%
    20:00 +15°C° 0 mm 1 mps 727 mmHg 75%
    21:00 +13°C° 0 mm 1 mps 727 mmHg 79%
    22:00 +12°C° 0 mm 1 mps 728 mmHg 84%
    23:00 +12°C° 0 mm 1 mps 728 mmHg 85%

    24 June, Sunday

    Time Temperature Precipitation Wind Pressure Humidity
    00:00 +12°C° 0 mm 1 mps 728 mmHg 86%
    01:00 +11°C° 0 mm 1 mps 728 mmHg 86%
    02:00 +11°C° 0 mm 1 mps 728 mmHg 87%
    03:00 +11°C° 0 mm 1 mps 728 mmHg 88%
    04:00 +11°C° 0 mm 1 mps 728 mmHg 89%
    05:00 +12°C° 0 mm 1 mps 728 mmHg 84%
    06:00 +12°C° 0 mm 0 mps 728 mmHg 79%
    07:00 +13°C° 0 mm 0 mps 728 mmHg 74%
    08:00 +15°C° 0 mm 0 mps 728 mmHg 68%
    09:00 +19°C° 0 mm 1 mps 728 mmHg 61%
    10:00 +20°C° 0 mm 1 mps 728 mmHg 55%
    11:00 +21°C° 0 mm 1 mps 727 mmHg 53%
    12:00 +21°C° 0 mm 1 mps 727 mmHg 51%
    13:00 +22°C° 0 mm 1 mps 727 mmHg 49%
    14:00 +21°C° 0 mm 1 mps 727 mmHg 50%
    15:00 +21°C° 0 mm 1 mps 726 mmHg 51%
    16:00 +21°C° 0 mm 1 mps 726 mmHg 51%
    17:00 +20°C° 0.1 mm 1 mps 726 mmHg 60%
    18:00 +19°C° 0.1 mm 1 mps 726 mmHg 68%
    19:00 +18°C° 0.1 mm 1 mps 726 mmHg 76%
    20:00 +15°C° 0 mm 1 mps 726 mmHg 79%
    21:00 +14°C° 0 mm 1 mps 727 mmHg 83%
    22:00 +12°C° 0 mm 0 mps 727 mmHg 86%
    23:00 +11°C° 0 mm 0 mps 727 mmHg 87%
    Show more